Home > Weather > Kawasaki > Past weeks

Flag for Japan Past Weather in Kawasaki, Japan — Yesterday and Last 2 Weeks

Now
88 °F

Passing clouds.


Feels Like: 93 °F
Forecast: 73 / 86 °F
Wind: 10 mph from South

Location: Tokyo International Airport

Current Time: Jul 29, 2016 at 3:01:37 PM

Latest Report: Jul 29, 2016 at 2:00 PM


Visibility: N/A

Pressure: 29.89 "Hg

Humidity: 55%

Dew Point: 70 °F

Location of KawasakiLocation

Past Weather in Kawasaki — Graph

°F

Kawasaki Temperature Yesterday

Maximum temperature yesterday: 86 °F (at 1:00 PM)
Minimum temperature yesterday: 73 °F (at 5:00 AM)
Average temperature yesterday: 80 °F

High & Low Weather Summary for the Past Weeks

 TemperatureHumidityPressure
High88 °F (Jul 14, 2:00 PM)100% (Jul 14, 7:47 PM)29.98 "Hg (Jul 14, 7:47 PM)
Low70 °F (Jul 16, 5:00 AM)55% (Jul 29, 12:30 PM)29.33 "Hg (Jul 14, 2:30 PM)
Average77 °F83%29.81 "Hg
* Reported Jul 14 2:00 PM — Jul 29 2:00 PM, Kawasaki, Weather by CustomWeather, © 2016

Note: Actual official high and low records may vary slightly from our data, if they occured in-between our weather recording intervals... More about our weather records

Advertising

Kawasaki Weather History for the Previous 24 Hours

Scroll right to see more
 ConditionsComfort  
Time TempWeatherWind HumidityBarometerVisibility
2:00 PM
Fri, Jul 29
88 °FPassing clouds.10 mph55%29.89 "HgN/A
1:30 PM86 °FPassing clouds.9 mph59%29.89 "HgN/A
1:00 PM88 °FPassing clouds.10 mph55%29.92 "HgN/A
12:30 PM88 °FPassing clouds.8 mph55%29.92 "HgN/A
12:00 PM86 °FPassing clouds.9 mph66%29.92 "HgN/A
11:30 AM84 °FPassing clouds.10 mph66%29.92 "HgN/A
11:00 AM84 °FPassing clouds.9 mph66%29.92 "HgN/A
10:30 AM84 °FScattered clouds.12 mph70%29.95 "HgN/A
10:00 AM84 °FScattered clouds.12 mph70%29.92 "HgN/A
9:30 AM82 °FPassing clouds.10 mph79%29.95 "HgN/A
9:00 AM82 °FPassing clouds.10 mph74%29.95 "HgN/A
8:30 AM82 °FPassing clouds.9 mph74%29.95 "HgN/A
8:00 AM81 °FPassing clouds.7 mph79%29.95 "HgN/A
7:30 AM81 °FPassing clouds.6 mph79%29.95 "HgN/A
7:00 AM77 °FScattered clouds.7 mph94%29.95 "HgN/A
6:30 AM77 °FPassing clouds.5 mph94%29.95 "HgN/A
6:00 AM75 °FPassing clouds.3 mph100%29.92 "HgN/A
5:30 AM75 °FPassing clouds.1 mph94%29.92 "HgN/A
5:00 AM73 °FPassing clouds.6 mph100%29.92 "HgN/A
4:30 AM73 °FPassing clouds.6 mph100%29.92 "HgN/A
4:00 AM73 °FPassing clouds.6 mph100%29.92 "HgN/A
3:30 AM75 °FPassing clouds.7 mph94%29.92 "HgN/A
3:00 AM75 °FPassing clouds.5 mph89%29.92 "HgN/A
2:30 AM75 °FPassing clouds.5 mph94%29.92 "HgN/A
2:00 AM75 °FPassing clouds.8 mph89%29.92 "HgN/A
1:30 AM75 °FPassing clouds.9 mph94%29.92 "HgN/A
1:00 AM77 °FPassing clouds.9 mph89%29.92 "HgN/A
12:30 AM77 °FPassing clouds.9 mph89%29.92 "HgN/A
12:00 AM77 °FPassing clouds.9 mph89%29.92 "HgN/A
11:30 PM
Thu, Jul 28
77 °FPassing clouds.8 mph89%29.92 "HgN/A
11:00 PM77 °FPassing clouds.8 mph89%29.95 "HgN/A
10:30 PM77 °FPassing clouds.9 mph89%29.92 "HgN/A
10:00 PM79 °FPassing clouds.9 mph84%29.95 "HgN/A
9:30 PM79 °FPassing clouds.10 mph84%29.92 "HgN/A
9:00 PM79 °FPassing clouds.12 mph79%29.92 "HgN/A
8:30 PM79 °FPassing clouds.14 mph79%29.92 "HgN/A
8:00 PM81 °FPassing clouds.13 mph74%29.92 "HgN/A
7:30 PM81 °FPassing clouds.13 mph74%29.92 "HgN/A
7:00 PM82 °FScattered showers. Partly cloudy.13 mph70%29.89 "HgN/A
6:30 PM82 °FScattered showers. Broken clouds.13 mph70%29.89 "HgN/A
6:00 PM84 °FScattered showers. Partly sunny.13 mph66%29.89 "HgN/A
5:30 PM82 °FScattered showers. Partly sunny.13 mph70%29.89 "HgN/A
5:00 PM84 °FBroken clouds.13 mph66%29.86 "HgN/A
4:30 PM84 °FPartly sunny.14 mph66%29.86 "HgN/A
4:00 PM84 °FPartly sunny.15 mph62%29.86 "HgN/A
3:30 PM84 °FPartly sunny.15 mph66%29.86 "HgN/A
3:00 PM86 °FPartly sunny.14 mph66%29.86 "HgN/A
Weather by CustomWeather, © 2016

See weather overviewHow to use our weather pages